SCP
0 0 0 0 0 0 0 0 0 0 0 0 0 -0 0 0 0 0 0 0 0 0 0 0 0 0 0 0 0 0 0 0 0 0 0 0 0 0 0 0 0 0 0 0
0 0 -0 -0 -0 0 0 0 0 0 0 0 0 0 0 0 0 0 0 0 0 0 0 0 0 0 0 0 0 0 0 0 0 0 0 0 0 0 0 0 0 0 0 0
0 -0 -0 -0 0 0 0 0 0 0 0 0 0 0 0 0 0 0 0 0 0 0 -0 0 0 0 0 0 0 0 0 0 0 0 0 0 0 0 0 0 0 0 0 0
0 0 0 0 0 0 0 0 0 0 0 0 0 0 0 0 0 0 0 0 -0 -0 0 0 0 0 0 0 0 0 0 0 0 0 0 0 0 0 0 0 0 0 0 0
0 0 0 0 0 0 0 0 0 0 0 0 0 0 -0 -0 -0 0 -0 -0 -0 -0 -0 -0 -0 -0 -0 0 0 0 0 0 0 0 0 0 0 0 0 0 0 0 0 0
0 0 0 0 0 0 0 0 0 0 0 -0 -0 0 0 -0 -0 -0 -0 -0 -0 -0 -0 -0 -0 -0 -0 -0 -0 -0 -0 0 0 0 0 0 0 0 0 0 0 0 0 0
0 0 0 0 0 0 0 0 0 0 0 -0 0 -0 -0 -0 0 0 0 -0 -0 -0 -0 -0 -0 -0 -0 -0 0 -0 -0 -0 -0 -0 0 0 0 0 0 0 0 0 0 0
0 0 0 0 0 0 0 0 0 0 0 0 0 0 0 0 0 0 0 0 0 0 -0 -0 -0 -0 -0 -0 -0 -0 0 0 -0 -0 -0 0 0 0 0 0 0 0 0 0
0 0 0 0 0 0 0 0 0 0 0 0 0 0 0 0 0 0 0 0 0 0 0 0 -0 -0 -0 -0 -0 -0 -0 -0 0 -0 -0 0 0 0 0 0 0 0 0 0
0 0 0 0 0 0 0 0 0 0 0 0 0 0 0 0 0 0 0 0 0 0 0 0 0 0 -0 -0 -0 -0 -0 -0 -0 -0 -0 0 0 0 0 0 0 0 0 0
0 0 0 0 0 0 0 0 0 0 0 0 0 0 0 0 0 0 0 0 0 0 0 0 0 0 0 -0 -0 -0 -0 -0 -0 -0 0 0 0 0 0 0 0 0 0 0
0 0 0 0 0 0 0 0 0 0 0 0 0 0 0 0 0 0 0 0 0 0 0 0 0 0 0 0 -0 -0 -0 -0 -0 -0 0 0 0 0 0 0 0 0 0 0
0 0 0 0 0 0 0 0 0 0 0 0 0 0 0 0 0 0 0 0 0 0 0 0 0 0 0 0 0 0 0 0 0 0 0 0 0 0 0 0 0 0 0 0
0 0 0 0 0 0 0 0 0 0 0 0 0 0 0 0 0 0 0 0 0 0 0 0 0 0 0 0 0 0 0 0 0 0 0 0 0 0 0 0 0 0 0 0
0 0 0 0 0 0 0 0 0 0 0 0 0 0 0 0 0 0 0 0 0 0 0 0 0 0 0 0 0 0 0 0 0 0 0 0 0 0 0 0 0 0 0 0
0 0 0 0 0 0 0 0 0 0 0 0 0 0 0 0 0 0 0 0 0 0 0 0 0 0 0 0 0 0 0 0 0 0 0 0 0 0 0 0 0 0 0 0
0 0 0 0 0 0 0 0 0 0 0 0 0 0 0 0 0 0 0 -0 0 0 0 0 0 0 0 0 0 0 0 0 0 0 0 0 0 0 0 0 0 0 0 0
0 0 0 0 0 0 0 0 0 0 0 0 0 0 0 0 0 0 -0 0 0 0 0 0 0 0 0 0 0 0 0 0 0 0 0 0 0 0 0 0 0 0 0 0
0 0 0 0 0 0 0 0 0 0 0 0 -0 -0 -0 0 0 0 0 0 0 0 0 0 0 0 0 0 0 0 0 0 0 -0 0 0 0 0 0 0 0 0 0 0
0 0 0 0 0 0 0 0 0 0 0 -0 -0 -0 -0 0 0 0 0 0 0 0 0 0 0 0 0 0 -0 0 0 0 0 0 0 0 0 0 0 0 0 0 0 0
0 0 0 0 0 0 0 0 0 0 -0 -0 -0 -0 0 0 0 0 0 0 0 0 0 0 -0 -0 0 -0 -0 0 0 0 0 0 0 0 0 0 0 0 0 0 0 0
0 0 0 0 0 0 0 0 -0 -0 0 0 0 0 -0 0 0 0 0 0 0 0 0 0 0 0 0 -0 -0 -0 -0 -0 -0 -0 -0 0 0 0 0 0 0 0 0 0
0 0 0 0 0 0 0 -0 -0 -0 -0 -0 -0 -0 0 0 0 0 0 0 0 0 0 0 0 0 -0 -0 0 0 0 0 -0 -0 -0 0 0 0 0 0 0 0 0 0
0 0 0 0 0 0 -0 -0 -0 -0 0 0 0 -0 0 0 0 0 0 0 0 0 0 0 0 0 0 0 -0 -0 -0 -0 -0 0 0 0 -0 0 0 -0 0 0 0 0
0 0 0 0 0 -0 -0 -0 0 0 0 0 0 0 0 -0 0 0 0 0 0 0 0 0 0 0 0 0 0 0 0 -0 -0 -0 -0 -0 -0 -0 -0 -0 -0 -0 -0 0
0 0 0 -0 -0 -0 0 0 0 0 0 0 0 0 -0 0 -0 -0 -0 -0 0 0 0 0 0 0 0 0 -0 -0 0 0 0 0 0 0 0 -0 -0 -0 -0 -0 -0 -0
0 -0 -0 0 0 0 0 0 0 0 0 0 0 -0 -0 -0 0 0 0 0 0 0 0 0 0 0 0 0 0 0 0 0 0 0 0 0 0 0 0 0 0 0 0 0
Wind_Speed_500mb
29 22 32 27 27 36 43 42 39 48 47 25 19 25 39 31 35 44 49 56 59 64 75 81 81 82 85 84 76 71 65 59 58 63 59 59 61 67 81 90 96 100 99 105
37 43 26 35 36 36 40 47 43 43 36 11 9 21 31 24 33 46 49 42 57 66 71 77 80 79 81 88 88 85 80 73 66 60 55 62 61 64 71 78 90 94 102 101
28 37 22 25 28 33 26 23 5 13 6 7 13 20 34 34 40 46 54 51 48 59 65 72 78 84 88 87 88 86 84 80 74 66 60 54 55 60 70 72 79 90 97 104
21 9 7 15 8 11 14 9 12 11 5 11 12 23 40 25 21 49 57 63 66 68 69 69 71 78 85 85 90 91 88 87 84 81 68 63 61 55 58 64 70 77 87 98
5 12 18 18 7 6 6 7 11 10 15 20 23 28 17 25 45 57 61 60 59 61 65 70 74 77 87 90 91 93 93 91 83 85 86 71 63 65 55 60 63 71 80 87
3 10 10 6 8 15 3 8 19 25 15 11 15 5 21 45 57 57 62 66 64 67 69 72 76 81 88 96 100 102 101 102 100 83 83 83 69 58 56 55 59 67 73 79
16 11 13 7 13 4 9 11 22 26 31 29 11 18 51 66 64 59 63 66 70 72 76 81 81 86 95 100 105 107 108 107 103 99 82 74 77 70 57 54 51 58 61 71
5 4 15 12 5 8 12 34 35 34 46 46 46 49 54 63 69 68 68 70 69 74 82 84 88 91 101 104 104 109 113 113 106 101 95 79 69 70 69 59 57 50 55 64
16 14 13 20 37 73 56 45 53 49 57 48 46 59 62 65 72 76 76 77 79 82 89 97 101 98 106 114 107 113 117 116 115 109 102 91 77 71 67 67 65 61 55 59
27 32 33 62 75 58 66 69 73 66 48 42 47 57 62 70 78 83 89 89 87 89 99 111 109 109 111 116 113 112 114 121 114 111 105 89 86 77 73 68 69 73 71 63
30 34 44 59 64 66 58 60 60 53 40 44 46 64 55 71 81 83 90 95 84 88 101 116 115 117 118 118 114 115 113 114 115 105 101 94 78 82 83 73 68 72 78 78
25 51 40 54 72 55 47 41 35 44 56 53 53 65 66 82 82 83 91 97 97 98 98 112 112 121 117 112 106 104 109 106 103 96 93 89 80 78 82 76 67 69 73 77
48 69 66 65 51 45 34 33 34 36 41 58 70 68 75 87 98 98 98 96 97 98 97 104 110 117 110 104 95 90 90 91 90 88 86 83 78 65 77 74 65 68 64 64
53 55 48 31 21 27 29 37 45 51 56 60 67 75 76 88 104 104 101 97 93 100 97 97 101 103 96 90 84 83 83 83 83 83 82 80 76 69 70 72 71 62 63 63
30 28 30 32 30 30 35 43 52 58 63 71 76 83 85 88 91 96 94 96 97 95 95 94 94 96 88 83 83 82 81 81 78 77 81 79 72 65 70 71 66 62 59 61
21 21 23 24 29 34 40 45 53 63 70 79 86 91 92 92 92 93 91 86 87 89 93 94 93 89 81 77 77 79 76 75 73 74 72 70 68 58 69 69 65 60 56 52
17 14 26 32 35 40 45 49 56 66 75 79 83 86 87 85 85 78 82 80 78 83 83 81 79 71 68 64 66 70 70 68 64 65 64 58 52 52 61 60 59 56 54 53
17 21 26 34 43 50 55 57 62 66 70 74 77 77 76 77 78 79 80 84 81 75 68 69 73 69 67 63 57 57 60 65 65 62 54 43 43 50 53 51 48 45 46 47
20 25 30 36 41 49 55 60 62 63 65 65 67 67 67 68 71 76 78 81 78 72 77 70 64 61 58 54 51 52 49 48 43 33 31 34 40 39 35 33 35 39 44 52
23 29 36 42 44 48 56 55 57 60 58 56 55 58 61 63 68 73 74 76 68 69 66 62 56 60 58 50 44 41 36 30 25 17 13 14 16 20 23 27 38 44 49 55
32 37 42 45 49 49 48 48 50 53 50 45 47 48 53 56 59 64 71 77 78 68 61 57 52 63 53 45 39 33 28 22 16 10 4 2 8 15 24 32 37 40 45 45
37 42 45 47 48 50 42 40 38 40 41 39 36 38 44 48 52 57 56 65 73 70 61 57 57 52 43 36 33 30 27 23 19 15 11 8 9 13 20 27 33 37 42 39
39 40 42 40 41 42 38 32 32 33 32 29 29 31 34 38 43 56 66 64 65 65 61 62 58 53 44 38 36 33 30 28 25 23 20 17 15 14 16 20 26 30 34 36
34 32 32 30 30 29 31 29 27 22 19 18 19 23 29 36 32 41 45 51 54 56 60 62 61 57 55 53 49 45 41 36 33 30 27 26 26 26 27 25 25 26 29 32
27 27 26 25 24 24 25 24 19 14 13 13 15 18 23 29 35 39 41 43 47 50 53 55 55 57 60 60 58 56 54 53 49 46 44 43 42 43 43 39 36 34 35 36
22 22 22 19 19 19 18 17 15 14 16 16 17 20 23 25 27 29 32 35 39 43 47 50 52 53 55 55 55 56 55 54 51 50 48 46 43 41 38 36 34 31 28 25
18 20 21 18 16 15 14 15 14 15 16 20 19 21 22 23 25 26 29 32 36 39 41 43 44 44 43 43 44 45 45 45 45 43 42 40 37 35 32 28 25 22 19 16
Wind_Direction_500mb
289 308 297 290 277 281 271 268 266 285 280 308 5 348 339 343 3 7 5 357 354 353 352 350 347 342 342 342 340 343 344 340 329 312 295 285 282 279 273 268 264 258 251 248
296 287 288 286 281 270 272 274 270 266 275 35 5 338 343 332 337 347 346 346 349 347 349 348 343 340 336 336 336 334 336 339 339 328 306 292 284 279 274 273 268 262 257 252
278 288 323 297 259 263 265 283 275 262 49 340 330 338 330 314 311 323 334 337 335 339 345 343 337 335 333 331 333 333 330 331 333 337 332 317 291 278 272 268 267 263 259 254
269 11 251 256 96 101 106 85 78 102 194 246 284 295 319 309 323 326 331 335 336 338 337 335 331 332 329 330 329 328 328 326 322 325 332 333 323 296 282 274 266 264 261 257
219 204 280 292 21 73 96 224 176 189 230 244 278 296 285 310 316 315 321 326 327 328 328 329 333 334 331 330 327 324 324 323 322 320 319 322 327 321 301 282 270 262 258 255
25 239 235 225 253 240 100 277 220 208 227 226 255 312 302 318 316 311 316 317 316 319 320 324 328 328 328 329 329 326 322 318 318 318 313 310 313 312 311 293 277 267 261 256
236 260 282 220 247 189 97 247 236 218 240 227 213 247 297 306 305 306 307 308 311 312 314 317 322 323 323 324 324 323 319 314 312 310 306 300 298 303 298 291 291 275 268 262
74 37 289 199 321 172 239 293 278 268 267 244 258 286 293 296 299 301 301 302 304 305 307 309 313 314 315 316 320 318 316 310 307 305 304 301 296 288 291 285 278 278 264 258
185 222 245 277 273 285 288 283 283 277 281 254 272 284 290 293 299 301 302 302 303 304 304 305 309 309 309 311 312 311 309 307 303 300 299 297 294 292 282 282 274 266 260 254
262 260 258 266 276 278 292 287 290 289 268 274 275 288 294 300 301 302 304 304 305 303 303 304 306 305 304 306 306 305 302 301 299 298 296 295 292 284 281 272 271 268 262 255
253 266 268 270 268 277 283 289 286 275 276 287 289 293 299 297 299 300 301 302 300 296 297 300 302 301 302 302 303 301 300 297 296 295 294 293 287 282 277 276 270 268 270 263
253 260 273 274 279 287 288 281 264 271 282 289 298 302 304 302 302 301 301 301 298 296 295 297 299 300 300 300 300 298 296 294 294 294 291 289 286 279 277 273 277 270 266 263
247 265 272 274 280 284 281 282 284 287 293 299 303 307 307 307 306 306 302 300 298 298 296 296 296 299 301 302 301 297 292 292 290 289 289 288 284 277 270 276 269 269 263 248
266 264 271 276 275 283 288 293 296 301 305 309 310 310 310 309 309 308 305 304 300 299 299 301 304 303 306 306 301 296 294 291 289 287 287 286 283 275 265 266 272 270 254 239
249 263 265 277 287 291 295 301 303 306 310 312 315 316 317 313 309 309 309 312 313 308 305 306 304 304 310 308 304 300 296 290 287 282 282 284 280 267 261 263 268 267 256 245
274 279 278 286 296 301 305 309 312 315 318 318 319 320 318 318 319 321 323 319 310 305 304 304 304 312 313 309 303 298 295 293 290 286 283 280 274 257 251 257 260 256 250 244
295 273 291 296 305 307 310 314 315 316 317 318 320 321 322 326 328 322 319 318 313 311 312 313 314 318 314 312 310 308 305 304 301 291 284 273 264 248 250 255 254 247 240 230
290 293 298 300 306 309 310 313 316 317 316 320 321 323 327 330 324 324 329 335 331 330 333 333 330 327 322 318 314 311 309 305 301 289 280 268 256 253 253 253 249 240 231 224
293 298 299 298 301 302 306 311 313 314 319 321 321 324 328 329 333 337 339 337 337 333 334 334 338 332 331 329 327 320 317 315 315 291 276 269 258 254 252 245 232 223 211 199
297 297 299 301 304 307 310 314 315 315 320 320 323 325 327 334 340 341 342 336 342 335 336 340 341 344 340 339 340 337 334 329 329 319 284 257 241 231 223 213 202 197 191 192
309 308 308 309 310 312 315 315 314 315 319 320 323 325 327 339 343 345 345 346 352 350 351 348 355 346 347 350 351 354 356 357 359 6 1 223 198 190 185 184 185 189 189 187
314 312 312 314 314 313 318 315 313 314 318 321 322 326 335 345 345 350 360 354 353 359 357 4 4 354 0 6 11 16 21 26 34 40 57 88 133 153 159 168 174 175 171 162
314 312 312 315 315 315 319 320 319 321 318 321 326 334 346 355 354 355 358 6 6 9 12 19 15 16 20 28 33 37 41 46 53 59 66 76 90 111 131 147 155 159 162 158
314 315 314 316 312 315 322 331 329 325 323 330 336 347 355 1 13 10 9 11 17 19 23 28 29 32 38 43 46 49 53 57 62 66 72 83 91 102 112 123 138 147 151 153
323 323 320 321 325 331 333 336 339 347 354 357 7 14 15 9 7 9 13 18 22 26 31 34 36 39 43 45 47 50 54 57 61 67 74 80 87 95 101 110 118 127 135 139
341 340 342 337 332 334 340 349 355 5 15 28 31 29 25 22 20 20 21 22 26 29 32 36 41 42 44 46 49 51 53 56 60 64 70 77 84 89 94 99 103 109 116 123
18 17 19 24 19 15 14 11 15 22 29 35 32 31 29 27 25 24 25 27 29 31 33 35 38 41 45 50 54 57 59 61 61 64 66 69 72 75 79 83 88 93 98 102
Wind_Speed_850mb
29 22 32 27 27 36 43 42 39 48 47 25 19 25 39 31 35 44 49 56 59 64 75 81 81 82 85 84 76 71 65 59 58 63 59 59 61 67 81 90 96 100 99 105
37 43 26 35 36 36 40 47 43 43 36 11 9 21 31 24 33 46 49 42 57 66 71 77 80 79 81 88 88 85 80 73 66 60 55 62 61 64 71 78 90 94 102 101
28 37 22 25 28 33 26 23 5 13 6 7 13 20 34 34 40 46 54 51 48 59 65 72 78 84 88 87 88 86 84 80 74 66 60 54 55 60 70 72 79 90 97 104
21 9 7 15 8 11 14 9 12 11 5 11 12 23 40 25 21 49 57 63 66 68 69 69 71 78 85 85 90 91 88 87 84 81 68 63 61 55 58 64 70 77 87 98
5 12 18 18 7 6 6 7 11 10 15 20 23 28 17 25 45 57 61 60 59 61 65 70 74 77 87 90 91 93 93 91 83 85 86 71 63 65 55 60 63 71 80 87
3 10 10 6 8 15 3 8 19 25 15 11 15 5 21 45 57 57 62 66 64 67 69 72 76 81 88 96 100 102 101 102 100 83 83 83 69 58 56 55 59 67 73 79
16 11 13 7 13 4 9 11 22 26 31 29 11 18 51 66 64 59 63 66 70 72 76 81 81 86 95 100 105 107 108 107 103 99 82 74 77 70 57 54 51 58 61 71
5 4 15 12 5 8 12 34 35 34 46 46 46 49 54 63 69 68 68 70 69 74 82 84 88 91 101 104 104 109 113 113 106 101 95 79 69 70 69 59 57 50 55 64
16 14 13 20 37 73 56 45 53 49 57 48 46 59 62 65 72 76 76 77 79 82 89 97 101 98 106 114 107 113 117 116 115 109 102 91 77 71 67 67 65 61 55 59
27 32 33 62 75 58 66 69 73 66 48 42 47 57 62 70 78 83 89 89 87 89 99 111 109 109 111 116 113 112 114 121 114 111 105 89 86 77 73 68 69 73 71 63
30 34 44 59 64 66 58 60 60 53 40 44 46 64 55 71 81 83 90 95 84 88 101 116 115 117 118 118 114 115 113 114 115 105 101 94 78 82 83 73 68 72 78 78
25 51 40 54 72 55 47 41 35 44 56 53 53 65 66 82 82 83 91 97 97 98 98 112 112 121 117 112 106 104 109 106 103 96 93 89 80 78 82 76 67 69 73 77
48 69 66 65 51 45 34 33 34 36 41 58 70 68 75 87 98 98 98 96 97 98 97 104 110 117 110 104 95 90 90 91 90 88 86 83 78 65 77 74 65 68 64 64
53 55 48 31 21 27 29 37 45 51 56 60 67 75 76 88 104 104 101 97 93 100 97 97 101 103 96 90 84 83 83 83 83 83 82 80 76 69 70 72 71 62 63 63
30 28 30 32 30 30 35 43 52 58 63 71 76 83 85 88 91 96 94 96 97 95 95 94 94 96 88 83 83 82 81 81 78 77 81 79 72 65 70 71 66 62 59 61
21 21 23 24 29 34 40 45 53 63 70 79 86 91 92 92 92 93 91 86 87 89 93 94 93 89 81 77 77 79 76 75 73 74 72 70 68 58 69 69 65 60 56 52
17 14 26 32 35 40 45 49 56 66 75 79 83 86 87 85 85 78 82 80 78 83 83 81 79 71 68 64 66 70 70 68 64 65 64 58 52 52 61 60 59 56 54 53
17 21 26 34 43 50 55 57 62 66 70 74 77 77 76 77 78 79 80 84 81 75 68 69 73 69 67 63 57 57 60 65 65 62 54 43 43 50 53 51 48 45 46 47
20 25 30 36 41 49 55 60 62 63 65 65 67 67 67 68 71 76 78 81 78 72 77 70 64 61 58 54 51 52 49 48 43 33 31 34 40 39 35 33 35 39 44 52
23 29 36 42 44 48 56 55 57 60 58 56 55 58 61 63 68 73 74 76 68 69 66 62 56 60 58 50 44 41 36 30 25 17 13 14 16 20 23 27 38 44 49 55
32 37 42 45 49 49 48 48 50 53 50 45 47 48 53 56 59 64 71 77 78 68 61 57 52 63 53 45 39 33 28 22 16 10 4 2 8 15 24 32 37 40 45 45
37 42 45 47 48 50 42 40 38 40 41 39 36 38 44 48 52 57 56 65 73 70 61 57 57 52 43 36 33 30 27 23 19 15 11 8 9 13 20 27 33 37 42 39
39 40 42 40 41 42 38 32 32 33 32 29 29 31 34 38 43 56 66 64 65 65 61 62 58 53 44 38 36 33 30 28 25 23 20 17 15 14 16 20 26 30 34 36
34 32 32 30 30 29 31 29 27 22 19 18 19 23 29 36 32 41 45 51 54 56 60 62 61 57 55 53 49 45 41 36 33 30 27 26 26 26 27 25 25 26 29 32
27 27 26 25 24 24 25 24 19 14 13 13 15 18 23 29 35 39 41 43 47 50 53 55 55 57 60 60 58 56 54 53 49 46 44 43 42 43 43 39 36 34 35 36
22 22 22 19 19 19 18 17 15 14 16 16 17 20 23 25 27 29 32 35 39 43 47 50 52 53 55 55 55 56 55 54 51 50 48 46 43 41 38 36 34 31 28 25
18 20 21 18 16 15 14 15 14 15 16 20 19 21 22 23 25 26 29 32 36 39 41 43 44 44 43 43 44 45 45 45 45 43 42 40 37 35 32 28 25 22 19 16
Wind_Direction_850mb
289 308 297 290 277 281 271 268 266 285 280 308 5 348 339 343 3 7 5 357 354 353 352 350 347 342 342 342 340 343 344 340 329 312 295 285 282 279 273 268 264 258 251 248
296 287 288 286 281 270 272 274 270 266 275 35 5 338 343 332 337 347 346 346 349 347 349 348 343 340 336 336 336 334 336 339 339 328 306 292 284 279 274 273 268 262 257 252
278 288 323 297 259 263 265 283 275 262 49 340 330 338 330 314 311 323 334 337 335 339 345 343 337 335 333 331 333 333 330 331 333 337 332 317 291 278 272 268 267 263 259 254
269 11 251 256 96 101 106 85 78 102 194 246 284 295 319 309 323 326 331 335 336 338 337 335 331 332 329 330 329 328 328 326 322 325 332 333 323 296 282 274 266 264 261 257
219 204 280 292 21 73 96 224 176 189 230 244 278 296 285 310 316 315 321 326 327 328 328 329 333 334 331 330 327 324 324 323 322 320 319 322 327 321 301 282 270 262 258 255
25 239 235 225 253 240 100 277 220 208 227 226 255 312 302 318 316 311 316 317 316 319 320 324 328 328 328 329 329 326 322 318 318 318 313 310 313 312 311 293 277 267 261 256
236 260 282 220 247 189 97 247 236 218 240 227 213 247 297 306 305 306 307 308 311 312 314 317 322 323 323 324 324 323 319 314 312 310 306 300 298 303 298 291 291 275 268 262
74 37 289 199 321 172 239 293 278 268 267 244 258 286 293 296 299 301 301 302 304 305 307 309 313 314 315 316 320 318 316 310 307 305 304 301 296 288 291 285 278 278 264 258
185 222 245 277 273 285 288 283 283 277 281 254 272 284 290 293 299 301 302 302 303 304 304 305 309 309 309 311 312 311 309 307 303 300 299 297 294 292 282 282 274 266 260 254
262 260 258 266 276 278 292 287 290 289 268 274 275 288 294 300 301 302 304 304 305 303 303 304 306 305 304 306 306 305 302 301 299 298 296 295 292 284 281 272 271 268 262 255
253 266 268 270 268 277 283 289 286 275 276 287 289 293 299 297 299 300 301 302 300 296 297 300 302 301 302 302 303 301 300 297 296 295 294 293 287 282 277 276 270 268 270 263
253 260 273 274 279 287 288 281 264 271 282 289 298 302 304 302 302 301 301 301 298 296 295 297 299 300 300 300 300 298 296 294 294 294 291 289 286 279 277 273 277 270 266 263
247 265 272 274 280 284 281 282 284 287 293 299 303 307 307 307 306 306 302 300 298 298 296 296 296 299 301 302 301 297 292 292 290 289 289 288 284 277 270 276 269 269 263 248
266 264 271 276 275 283 288 293 296 301 305 309 310 310 310 309 309 308 305 304 300 299 299 301 304 303 306 306 301 296 294 291 289 287 287 286 283 275 265 266 272 270 254 239
249 263 265 277 287 291 295 301 303 306 310 312 315 316 317 313 309 309 309 312 313 308 305 306 304 304 310 308 304 300 296 290 287 282 282 284 280 267 261 263 268 267 256 245
274 279 278 286 296 301 305 309 312 315 318 318 319 320 318 318 319 321 323 319 310 305 304 304 304 312 313 309 303 298 295 293 290 286 283 280 274 257 251 257 260 256 250 244
295 273 291 296 305 307 310 314 315 316 317 318 320 321 322 326 328 322 319 318 313 311 312 313 314 318 314 312 310 308 305 304 301 291 284 273 264 248 250 255 254 247 240 230
290 293 298 300 306 309 310 313 316 317 316 320 321 323 327 330 324 324 329 335 331 330 333 333 330 327 322 318 314 311 309 305 301 289 280 268 256 253 253 253 249 240 231 224
293 298 299 298 301 302 306 311 313 314 319 321 321 324 328 329 333 337 339 337 337 333 334 334 338 332 331 329 327 320 317 315 315 291 276 269 258 254 252 245 232 223 211 199
297 297 299 301 304 307 310 314 315 315 320 320 323 325 327 334 340 341 342 336 342 335 336 340 341 344 340 339 340 337 334 329 329 319 284 257 241 231 223 213 202 197 191 192
309 308 308 309 310 312 315 315 314 315 319 320 323 325 327 339 343 345 345 346 352 350 351 348 355 346 347 350 351 354 356 357 359 6 1 223 198 190 185 184 185 189 189 187
314 312 312 314 314 313 318 315 313 314 318 321 322 326 335 345 345 350 360 354 353 359 357 4 4 354 0 6 11 16 21 26 34 40 57 88 133 153 159 168 174 175 171 162
314 312 312 315 315 315 319 320 319 321 318 321 326 334 346 355 354 355 358 6 6 9 12 19 15 16 20 28 33 37 41 46 53 59 66 76 90 111 131 147 155 159 162 158
314 315 314 316 312 315 322 331 329 325 323 330 336 347 355 1 13 10 9 11 17 19 23 28 29 32 38 43 46 49 53 57 62 66 72 83 91 102 112 123 138 147 151 153
323 323 320 321 325 331 333 336 339 347 354 357 7 14 15 9 7 9 13 18 22 26 31 34 36 39 43 45 47 50 54 57 61 67 74 80 87 95 101 110 118 127 135 139
341 340 342 337 332 334 340 349 355 5 15 28 31 29 25 22 20 20 21 22 26 29 32 36 41 42 44 46 49 51 53 56 60 64 70 77 84 89 94 99 103 109 116 123
18 17 19 24 19 15 14 11 15 22 29 35 32 31 29 27 25 24 25 27 29 31 33 35 38 41 45 50 54 57 59 61 61 64 66 69 72 75 79 83 88 93 98 102